Tracking 27172 objects as of 2-Apr-2023
HD Live streaming from Space Station
objects crossing your sky now

DELTA 1 DEB

Track DELTA 1 DEB now!
10-day predictions


NORAD ID: 10730
Int'l Code: 1975-027E
Perigee: 838.6 km
Apogee: 1,005.0 km
Inclination: 115.0 °
Period: 103.3 minutes
Semi major axis: 7292 km
RCS: 2.1029 m2 (large)
Launch date: April 9, 1975
Source: United States (US)
Launch site: AIR FORCE WESTERN TEST RANGE (AFWTR)

Note: This is SATELLITE DEBRIS
Your satellite tracking list
Your tracking list is empty




NASA's NSSDC Master Catalog

Two Line Element Set (TLE):
1 10730U 75027E   23091.90856235  .00000039  00000-0  14525-3 0  9997
2 10730 114.9753 159.3716 0114085 306.4983  52.5619 13.93990406440715
Source of the keplerian elements: AFSPC